Location: Gand�
(15.0971°N, 12.6564°W)
Time: 14:55:41
(UTC+00:00)

Meteor 1-21 Rocket - Pass Details

Date: 07 August 2020
Orbit: 832 x 908 km, 81.2° (Epoch: 19 September)

Event Time Altitude Azimuth Distance (km) Brightness Sun altitude
Rises 05:02:08 0° 344° (NNW) 3,370 7.4 -21.7°
Reaches altitude 10° 05:04:37 10° 338° (NNW) 2,435 6.6 -21.2°
Maximum altitude 05:09:50 46° 266° (W) 1,111 4.4 -20.0°
Enters shadow 05:11:58 31° 216° (SW) 1,423 4.9 -19.6°
